Regional Weather Roundup
Issued by NWS

Home | Current Version | Previous Version | Graphics & Text | Print | Product List | Glossary On
Versions: 1 2 3 4 5 6 7 8 9 10 11 12 13 14 15 16 17 18 19 20 21 22 23 24 25 26 27 28 29 30 31 32 33 34 35 36 37 38 39 40 41 42 43 44 45 46 47 48 49 50
000
ASUS43 KLOT 180510
RWRIL

ILLINOIS REGIONAL WEATHER ROUNDUP
NATIONAL WEATHER SERVICE CHICAGO/ROMEOVILLE IL
1200 AM CDT THU SEP 18 2014

NOTE: "FAIR" INDICATES FEW OR NO CLOUDS BELOW 12,000 FEET WITH NO
SIGNIFICANT WEATHER AND/OR OBSTRUCTIONS TO VISIBILITY.

* THESE STATIONS ARE NOT UNDER NWS QUALITY CONTROL. THEY ALSO MAY NOT
  REPORT WEATHER SUCH AS PRECIPITATION OR FOG.

ILZ001-002-007-009-015-016-024-180600-
NORTHWEST ILLINOIS

CITY           SKY/WX    TMP DP  RH WIND       PRES   REMARKS
MOLINE         CLEAR     50  48  93 CALM      30.03R
STERLING*      CLEAR     48  46  93 CALM      30.04R
SAVANNA*       CLEAR     51  50  94 CALM      30.03S
$$

ILZ003-004-008-010-011-017-018-180600-
NORTH CENTRAL ILLINOIS

CITY           SKY/WX    TMP DP  RH WIND       PRES   REMARKS
ROCKFORD       CLEAR     52  49  89 CALM      30.06S
FREEPORT*      PTCLDY    50  48  93 CALM      30.06S
ROCHELLE*      CLEAR     49  47  93 CALM      30.04S
DE KALB*       CLEAR     52  46  80 SE5       30.05S
PERU*          CLEAR     53  49  85 CALM      30.04S
$$

ILZ005-006-012>014-019>023-180600-
NORTHEAST ILLINOIS

CITY           SKY/WX    TMP DP  RH WIND       PRES   REMARKS
CHICAGO-OHARE  CLEAR     59  48  67 CALM      30.03S
CHICAGO-MIDWAY CLEAR     60  52  74 CALM      30.03S
AURORA         CLEAR     48  45  89 CALM      30.04S
LANSING*       CLEAR     49  48  93 CALM      30.04S
JOLIET*        CLEAR     49  47  93 CALM      30.05R FOG
WAUKEGAN       CLEAR     50  48  93 CALM      30.03S
DUPAGE AIRPORT CLEAR     50  46  86 CALM      30.04R
KANKAKEE*      CLEAR     51  49  93 CALM      30.05R
WHEELING       CLEAR     53  48  83 CALM      30.05S
MORRIS*        CLEAR     54  51  89 CALM      30.04S
ROMEOVILLE*    CLEAR     51  49  91 SE3       30.04S
NORTHERLY ISL    N/A     57  54  89 S1          N/A
$$

LMZ740>746-180600-
SOUTHERN LAKE MICHIGAN

STATION/POSITION SKY/WX   TEMP    WIND        PRES    VSBY  WAVE
                          AIR SEA DIR/SP/G                  HT/PER
                          (F)     (DEG/KT/KT) (MB)    (MI)  (FT/S)
SOUTHERN BUOY              63 65  190/  6/  6 1017.1S         0
WAUKEGAN HARBOR            58     240/  3/  5   N/A
HARRISON CRIB              62     150/  4/  5   N/A
BURNHAM HARBOR             58     180/  3       N/A
CALUMET HARBOR             60      CALM  /  1 1015.9S
MICHIGAN CITY              55     100/  7/  8   N/A
MICHIGAN CITY 6N           60 64  130/  4/  6   N/A           1
ST. JOSEPH                 62 67  120/  4/  6   N/A           0
$$

ILZ025>027-034>036-040-047-049-050-058-095>099-180600-
WEST-CENTRAL ILLINOIS

CITY           SKY/WX    TMP DP  RH WIND       PRES   REMARKS
QUINCY         CLEAR     56  54  93 E3        30.01S
GALESBURG*     CLEAR     48  47  93 CALM      30.03S
MACOMB*        CLEAR     50  49  99 E3        30.04F FOG
JACKSONVILLE*  CLEAR     53  51  96 CALM      30.03S FOG
PITTSFIELD*    CLEAR     54  52  92 E3        30.03S FOG
$$

ILZ028>032-037-038-041>044-048-051>054-059>061-180600-
CENTRAL ILLINOIS

CITY           SKY/WX    TMP DP  RH WIND       PRES   REMARKS
PONTIAC        CLEAR     52  50  93 CALM      30.03S
DECATUR        PTCLDY    54  52  93 NE3       30.03S
PEORIA         CLEAR     56  52  86 CALM      30.03S
LACON*         CLEAR     50  49  95 CALM      30.03S FOG
LINCOLN*       CLEAR     54  52  94 CALM      30.02R
SPRINGFIELD    CLEAR     52  50  93 CALM      30.03R
TAYLORVILLE    CLOUDY    55  54  94 CALM      30.02S
$$

ILZ033-039-045-046-055>057-062-063-180600-
EAST-CENTRAL ILLINOIS

CITY           SKY/WX    TMP DP  RH WIND       PRES   REMARKS
CHAMPAIGN      MOCLDY    53  51  93 NW3       30.04S
DANVILLE*      PTCLDY    52  50  93 CALM      30.01S
RANTOUL*       CLEAR     56  51  84 SW5       30.05S
MATTOON        MOCLDY    55  52  89 N3        30.02S
PARIS*         CLOUDY    53  53  99 CALM      30.04S
$$

ILZ079-100>102-180600-
SOUTHWEST ILLINOIS

CITY           SKY/WX    TMP DP  RH WIND       PRES   REMARKS
ALTON          CLOUDY    60  56  88 CALM      30.01S
BELLEVILLE     CLOUDY    61  59  92 CALM      30.00R
CAHOKIA*       CLOUDY    62  57  83 E3        30.00S
SPARTA*        CLOUDY    61  59  94 CALM      30.01S
$$

ILZ064>066-069>071-074>076-080>082-084>086-088>090-092>094-180600-
SOUTH-CENTRAL ILLINOIS

CITY           SKY/WX    TMP DP  RH WIND       PRES   REMARKS
CARBONDALE     MOCLDY    60  58  92 CALM      30.00S
CAIRO*         CLOUDY    59  57  91 CALM      29.98S FOG
EFFINGHAM*     PTCLDY    57  54  91 CALM      30.02R
MARION         MOCLDY    63  59  88 CALM      30.00S
MT. VERNON     CLOUDY    61  54  77 CALM      30.01S
CENTRALIA*     CLOUDY    60  55  83 NE3       30.01R
SALEM*         CLOUDY    62  58  89 CALM      30.01S
METROPOLIS*    CLOUDY    59  59 100 CALM      29.98S FOG
$$

ILZ067-068-072-073-078-083-087-091-180600-
SOUTHEAST ILLINOIS

CITY           SKY/WX    TMP DP  RH WIND       PRES   REMARKS
LAWRENCEVILLE  PTCLDY    57  54  89 NE5       30.02S
FLORA*         CLEAR     60  55  83 NE5       30.02R
FAIRFIELD*     CLOUDY   N/A N/A N/A NE3       30.00S
HARRISBURG*    CLOUDY    63  60  89 CALM      30.01S
ROBINSON*      FOG       51  51  99 CALM      30.04R VSB 3/4
CARMI*         CLOUDY    63  59  87 CALM      30.00S
$$

ABBREVIATIONS USED IN REMARKS
   TC - TEMPERATURE IN CELSIUS
  WCI - WIND CHILL INDEX
   HX - HEAT INDEX
  VSB - VISIBILITY
$$




USA.gov is the U.S. government's official web portal to all federal, state and local government web resources and services.